Weather History for Pittsfield, MA

Change the Weather History Date:

Monday, May 27, 2013

  Actual Average Record
Temperature  
Mean Temperature 51 °F 58 °F  
Max Temperature 67 °F 70 °F 89 °F (1932)
Min Temperature 35 °F 47 °F 30 °F (1968)
Degree Days  
Heating Degree Days 14 7  
Month to date heating degree days 281 298  
Since 1 July heating degree days 6917 7333  
Cooling Degree Days 0 1  
Month to date cooling degree days 9 1  
Year to date cooling degree days 9 3  
Moisture  
Dew Point 36 °F    
Average Humidity 60    
Maximum Humidity 92    
Minimum Humidity 28    
Precipitation  
Precipitation 0.00 in 0.17 in 1.07 in (1946)
Month to date precipitation 5.16 3.57  
Year to date precipitation 13.05 16.40  
Sea Level Pressure  
Sea Level Pressure 30.13 in    
Wind  
Wind Speed 8 mph (West)    
Max Wind Speed 20 mph    
Max Gust Speed 24 mph    
Visibility 10 miles    
Events      
T = Trace of Precipitation, MM = Missing Value Source: NWS Daily Summary

Daily Weather History Graph

Daily Weather History Graph

Search for Another Location

Airport:

Trip Planner

Search our weather history database for the weather conditions in past years. The results will help you decide how hot, cold, wet, or windy it might be!

Date:

Astronomy

May. 27, 2013 Rise Set
Actual Time 5:21 AM EDT 8:19 PM EDT
Civil Twilight 4:47 AM EDT 8:53 PM EDT
Nautical Twilight 4:05 AM EDT 9:36 PM EDT
Astronomical Twilight 3:15 AM EDT 10:26 PM EDT
Moon 10:55 PM EDT (5/27) 7:56 AM EDT (5/27)
Length of Visible Light 16h 05m
Length of Day
14h 58m
Waning Gibbous, 91% of the Moon is Illuminated
May 27
Waning Gibbous
May 31
Last Quarter
Jun 8
New
Jun 16
First Quarter
Jun 23
Full

Hourly Weather History & Observations

Time (EDT) Temp. Windchill Dew Point Humidity Pressure Visibility Wind Dir Wind Speed Gust Speed Precip Events Conditions
12:54 AM 39.0 °F 33.4 °F 37.9 °F 96% 30.12 in 10.0 mi WSW 8.1 mph - N/A   Clear
1:54 AM 37.9 °F 32.1 °F 36.0 °F 93% 30.12 in 10.0 mi WSW 8.1 mph - N/A   Clear
2:54 AM 37.0 °F 31.0 °F 36.0 °F 96% 30.13 in 10.0 mi WSW 8.1 mph - N/A   Clear
3:54 AM 37.0 °F 33.3 °F 34.0 °F 89% 30.14 in 10.0 mi West 4.6 mph - N/A   Clear
4:54 AM 36.0 °F 32.1 °F 34.0 °F 93% 30.14 in 10.0 mi West 4.6 mph - N/A   Clear
5:54 AM 37.9 °F 34.4 °F 35.1 °F 89% 30.16 in 10.0 mi WSW 4.6 mph - N/A   Clear
6:54 AM 41.0 °F - 37.9 °F 89% 30.17 in 10.0 mi Calm Calm - N/A   Clear
7:54 AM 48.9 °F - 37.9 °F 66% 30.17 in 10.0 mi WSW 3.5 mph - N/A   Clear
8:54 AM 51.1 °F - 37.9 °F 61% 30.18 in 10.0 mi WNW 10.4 mph 19.6 mph N/A   Clear
9:54 AM 54.0 °F - 39.9 °F 59% 30.17 in 10.0 mi WNW 8.1 mph 16.1 mph N/A   Clear
10:54 AM 57.0 °F - 39.0 °F 51% 30.17 in 10.0 mi WNW 13.8 mph - N/A   Clear
11:54 AM 60.1 °F - 37.0 °F 42% 30.14 in 10.0 mi Variable 6.9 mph 19.6 mph N/A   Clear
12:54 PM 62.1 °F - 34.0 °F 35% 30.13 in 10.0 mi West 16.1 mph 24.2 mph N/A   Clear
1:54 PM 64.0 °F - 33.1 °F 31% 30.12 in 10.0 mi West 12.7 mph 19.6 mph N/A   Clear
2:54 PM 64.9 °F - 32.0 °F 29% 30.11 in 10.0 mi West 18.4 mph 24.2 mph N/A   Clear
3:54 PM 64.9 °F - 30.9 °F 28% 30.10 in 10.0 mi NW 9.2 mph 18.4 mph N/A   Clear
4:54 PM 64.9 °F - 33.1 °F 31% 30.10 in 10.0 mi West 16.1 mph 23.0 mph N/A   Clear
5:54 PM 64.9 °F - 35.1 °F 33% 30.10 in 10.0 mi NW 6.9 mph - N/A   Clear
6:54 PM 64.0 °F - 35.1 °F 34% 30.10 in 10.0 mi WNW 8.1 mph - N/A   Clear
7:54 PM 60.1 °F - 35.1 °F 39% 30.10 in 10.0 mi WNW 6.9 mph - N/A   Clear
8:54 PM 52.0 °F - 39.0 °F 61% 30.12 in 10.0 mi West 5.8 mph - N/A   Clear
9:54 PM 48.9 °F - 39.0 °F 69% 30.12 in 10.0 mi South 3.5 mph - N/A   Clear
10:54 PM 46.9 °F - 37.9 °F 71% 30.15 in 10.0 mi SW 3.5 mph - N/A   Clear
11:54 PM 44.1 °F 42.5 °F 39.0 °F 82% 30.17 in 10.0 mi NE 3.5 mph - N/A   Clear